TimeCST,TemperatureF,Dew PointF,Humidity,Sea Level PressureIn,VisibilityMPH,Wind Direction,Wind SpeedMPH,Gust SpeedMPH,PrecipitationIn,Events,Conditions,WindDirDegrees,DateUTC
12:15 AM,35.6,31.3,84,29.53,10.0,SSW,9.2,-,N/A,,Overcast,200,2014-01-13 06:15:00
12:35 AM,35.4,31.5,85,29.53,10.0,SSW,10.4,-,N/A,,Overcast,200,2014-01-13 06:35:00
12:55 AM,35.6,31.5,85,29.52,10.0,SSW,10.4,-,N/A,,Overcast,200,2014-01-13 06:55:00
1:15 AM,35.8,31.6,85,29.53,10.0,South,9.2,-,N/A,,Overcast,190,2014-01-13 07:15:00
1:35 AM,35.6,31.6,85,29.53,10.0,SSW,10.4,-,N/A,,Overcast,200,2014-01-13 07:35:00
1:55 AM,35.6,31.6,85,29.52,10.0,South,9.2,-,N/A,,Overcast,190,2014-01-13 07:55:00
2:15 AM,35.2,31.5,86,29.53,10.0,SSW,9.2,-,N/A,,Overcast,210,2014-01-13 08:15:00
2:35 AM,34.9,31.8,89,29.53,10.0,SSW,6.9,-,N/A,,Overcast,210,2014-01-13 08:35:00
2:55 AM,34.7,31.6,89,29.52,10.0,SSW,4.6,-,N/A,,Overcast,200,2014-01-13 08:55:00
3:15 AM,34.7,32.0,90,29.51,10.0,SSW,3.5,-,N/A,,Overcast,200,2014-01-13 09:15:00
3:35 AM,34.7,32.0,90,29.51,10.0,SSW,4.6,-,N/A,,Overcast,200,2014-01-13 09:35:00
3:55 AM,34.7,31.8,89,29.51,10.0,South,4.6,-,N/A,,Overcast,180,2014-01-13 09:55:00
4:15 AM,34.9,32.0,89,29.52,10.0,South,5.8,-,N/A,,Overcast,180,2014-01-13 10:15:00
4:35 AM,34.9,31.8,89,29.51,10.0,South,6.9,-,N/A,,Overcast,190,2014-01-13 10:35:00
4:55 AM,35.1,31.6,87,29.51,10.0,SSW,6.9,-,N/A,,Overcast,210,2014-01-13 10:55:00
5:15 AM,34.5,31.8,90,29.51,10.0,SSW,6.9,-,N/A,,Overcast,200,2014-01-13 11:15:00
5:35 AM,34.3,31.8,90,29.52,10.0,SSW,5.8,-,N/A,,Overcast,210,2014-01-13 11:35:00
5:55 AM,34.0,31.8,92,29.51,10.0,SSW,6.9,-,N/A,,Overcast,200,2014-01-13 11:55:00
6:15 AM,34.0,32.0,92,29.52,10.0,SW,5.8,-,N/A,,Overcast,220,2014-01-13 12:15:00
6:35 AM,34.5,32.0,90,29.52,10.0,SSW,6.9,-,N/A,,Overcast,210,2014-01-13 12:35:00
6:55 AM,34.7,32.0,90,29.52,10.0,SW,6.9,-,N/A,,Overcast,220,2014-01-13 12:55:00
7:15 AM,34.7,31.6,89,29.51,10.0,SW,5.8,-,N/A,,Overcast,230,2014-01-13 13:15:00
7:35 AM,34.7,31.8,89,29.52,10.0,SW,5.8,-,N/A,,Overcast,230,2014-01-13 13:35:00
7:55 AM,34.7,31.8,89,29.51,10.0,SW,6.9,-,N/A,,Overcast,230,2014-01-13 13:55:00
8:15 AM,34.2,31.8,91,29.51,10.0,SW,4.6,-,N/A,,Overcast,230,2014-01-13 14:15:00
8:35 AM,34.5,32.0,90,29.53,10.0,WSW,8.1,-,N/A,,Overcast,240,2014-01-13 14:35:00
8:55 AM,34.7,31.8,89,29.53,10.0,SW,6.9,-,N/A,,Overcast,230,2014-01-13 14:55:00
9:15 AM,34.7,31.8,89,29.54,10.0,WSW,8.1,-,N/A,,Overcast,240,2014-01-13 15:15:00
9:35 AM,34.7,31.6,89,29.54,10.0,SW,5.8,-,N/A,,Overcast,230,2014-01-13 15:35:00
9:55 AM,35.4,31.6,86,29.54,10.0,SW,5.8,-,N/A,,Overcast,230,2014-01-13 15:55:00
10:15 AM,35.6,31.5,85,29.53,10.0,SSW,5.8,-,N/A,,Overcast,210,2014-01-13 16:15:00
10:35 AM,35.8,31.5,84,29.52,10.0,SSW,4.6,-,N/A,,Mostly Cloudy,210,2014-01-13 16:35:00
10:55 AM,36.1,31.6,84,29.52,10.0,WSW,5.8,-,N/A,,Mostly Cloudy,240,2014-01-13 16:55:00
11:15 AM,36.5,31.1,81,29.53,10.0,WSW,6.9,-,N/A,,Mostly Cloudy,240,2014-01-13 17:15:00
11:35 AM,38.3,29.8,72,29.53,10.0,West,6.9,-,N/A,,Overcast,260,2014-01-13 17:35:00
11:55 AM,38.3,29.7,71,29.52,10.0,West,8.1,-,N/A,,Overcast,260,2014-01-13 17:55:00
12:15 PM,38.8,29.3,69,29.52,10.0,West,8.1,-,N/A,,Scattered Clouds,260,2014-01-13 18:15:00
12:35 PM,39.4,29.1,67,29.52,10.0,West,9.2,-,N/A,,Clear,270,2014-01-13 18:35:00
12:55 PM,39.0,28.8,67,29.53,10.0,West,6.9,-,N/A,,Scattered Clouds,270,2014-01-13 18:55:00
1:15 PM,37.8,28.4,69,29.54,10.0,WNW,11.5,18.4,N/A,,Overcast,290,2014-01-13 19:15:00
1:35 PM,36.5,28.4,72,29.55,10.0,WNW,8.1,16.1,N/A,,Overcast,290,2014-01-13 19:35:00
1:55 PM,35.8,28.0,73,29.55,10.0,West,9.2,17.3,N/A,,Overcast,270,2014-01-13 19:55:00
2:15 PM,35.1,27.9,75,29.57,10.0,West,6.9,-,N/A,,Overcast,280,2014-01-13 20:15:00
2:35 PM,34.2,27.7,77,29.58,10.0,West,9.2,-,N/A,,Overcast,280,2014-01-13 20:35:00
2:55 PM,33.8,27.5,78,29.58,10.0,West,9.2,-,N/A,,Overcast,280,2014-01-13 20:55:00
3:15 PM,33.8,27.5,78,29.59,10.0,West,6.9,-,N/A,,Overcast,270,2014-01-13 21:15:00
3:35 PM,33.8,26.8,75,29.60,10.0,West,10.4,17.3,N/A,,Overcast,270,2014-01-13 21:35:00
3:55 PM,34.2,25.9,72,29.61,10.0,West,9.2,-,N/A,,Mostly Cloudy,260,2014-01-13 21:55:00
4:15 PM,33.6,25.5,72,29.61,10.0,WSW,9.2,-,N/A,,Scattered Clouds,250,2014-01-13 22:15:00
4:35 PM,32.9,24.3,71,29.62,10.0,West,6.9,-,N/A,,Clear,260,2014-01-13 22:35:00
4:55 PM,31.6,24.8,76,29.63,10.0,WSW,6.9,-,N/A,,Clear,240,2014-01-13 22:55:00
5:15 PM,30.2,25.3,82,29.64,10.0,WSW,6.9,-,N/A,,Clear,240,2014-01-13 23:15:00
5:35 PM,29.8,24.4,80,29.64,10.0,SW,6.9,-,N/A,,Clear,230,2014-01-13 23:35:00
5:55 PM,29.3,24.4,82,29.65,10.0,SW,6.9,-,N/A,,Clear,230,2014-01-13 23:55:00
6:15 PM,28.4,23.2,81,29.65,10.0,WSW,8.1,-,N/A,,Clear,240,2014-01-14 00:15:00
6:35 PM,28.2,23.2,81,29.66,10.0,WSW,6.9,-,N/A,,Clear,240,2014-01-14 00:35:00
6:55 PM,27.9,23.0,82,29.67,10.0,WSW,6.9,-,N/A,,Clear,240,2014-01-14 00:55:00
7:15 PM,27.5,22.1,80,29.67,10.0,WSW,9.2,-,N/A,,Clear,240,2014-01-14 01:15:00
7:35 PM,27.5,21.0,77,29.67,10.0,SW,6.9,-,N/A,,Clear,230,2014-01-14 01:35:00
7:55 PM,26.6,19.9,76,29.68,10.0,WSW,8.1,-,N/A,,Clear,240,2014-01-14 01:55:00
8:15 PM,26.6,18.1,70,29.68,10.0,WSW,8.1,-,N/A,,Clear,250,2014-01-14 02:15:00
8:35 PM,25.7,17.2,70,29.68,10.0,WSW,8.1,-,N/A,,Clear,240,2014-01-14 02:35:00
8:55 PM,25.7,17.4,71,29.69,10.0,WSW,8.1,-,N/A,,Clear,240,2014-01-14 02:55:00
9:15 PM,25.3,16.9,70,29.70,10.0,WSW,9.2,-,N/A,,Clear,240,2014-01-14 03:15:00
9:35 PM,25.7,17.2,70,29.70,10.0,WSW,10.4,-,N/A,,Clear,240,2014-01-14 03:35:00
9:55 PM,24.3,16.7,73,29.70,10.0,WSW,6.9,-,N/A,,Clear,240,2014-01-14 03:55:00
10:15 PM,23.4,16.9,76,29.70,10.0,SW,6.9,-,N/A,,Clear,230,2014-01-14 04:15:00
10:35 PM,23.4,16.7,76,29.70,10.0,WSW,5.8,-,N/A,,Clear,240,2014-01-14 04:35:00
10:55 PM,23.5,16.3,74,29.71,10.0,WSW,5.8,-,N/A,,Clear,250,2014-01-14 04:55:00
11:15 PM,21.9,15.8,77,29.70,10.0,WSW,6.9,-,N/A,,Clear,240,2014-01-14 05:15:00
11:35 PM,22.1,16.3,79,29.70,10.0,SW,3.5,-,N/A,,Scattered Clouds,220,2014-01-14 05:35:00
11:55 PM,22.3,16.5,79,29.70,10.0,SSW,4.6,-,N/A,,Scattered Clouds,200,2014-01-14 05:55:00